Rochester, NY

1:22 PM EDT on June 29, 2017 (GMT -0400)
Greater Rochester International

Weather History for KROC - November, 2011

Change the Weather History Date:

Friday, November 11, 2011

  Actual Average Record
Temperature  
Mean Temperature 37 °F 42 °F  
Max Temperature 43 °F 50 °F 73 °F (1909)
Min Temperature 30 °F 34 °F 20 °F (1957)
Degree Days  
Heating Degree Days 28 23  
Month to date heating degree days 192 232  
Since 1 July heating degree days 698 865  
Cooling Degree Days 0 0  
Month to date cooling degree days 0 0  
Year to date cooling degree days 695 539  
Moisture  
Dew Point 29 °F    
Average Humidity 71    
Maximum Humidity 89    
Minimum Humidity 53    
Precipitation  
Precipitation 0.04 in 0.09 in 0.67 in (1991)
Month to date precipitation 0.04 1.04  
Year to date precipitation 35.55 29.74  
Snow  
Snow T in 0.20 in 5.20 in (1991)
Month to date snowfall T 1.5  
Since 1 July snowfall T 1.6  
Since 1 September snowfall T 1.6  
Snow Depth 0.00 in    
Sea Level Pressure  
Sea Level Pressure 29.80 in    
Wind  
Wind Speed 12 mph (West)    
Max Wind Speed 24 mph    
Max Gust Speed 32 mph    
Visibility 10 miles    
Events Rain , Snow    
T = Trace of Precipitation, MM = Missing Value Source: NWS Daily Summary

Daily Weather History Graph

Daily Weather History Graph

Search for Another Location

Airport or City:

Trip Planner

Search our weather history database for the weather conditions in past years. The results will help you decide how hot, cold, wet, or windy it might be!

Date:

Astronomy

Nov. 11, 2011 Rise Set
Actual Time 6:57 AM EST 4:50 PM EST
Civil Twilight 6:27 AM EST 5:21 PM EST
Nautical Twilight 5:53 AM EST 5:55 PM EST
Astronomical Twilight 5:19 AM EST 6:28 PM EST
Moon 5:15 PM EST (11/11) 7:46 AM EST (11/11)
Length of Visible Light 10h 53m
Length of Day
9h 53m
Full, 99% of the Moon is Illuminated
Nov 11
Full
Nov 18
Last Quarter
Nov 25
New
Dec 2
First Quarter
Dec 10
Full

Hourly Weather History & Observations

Time (EST) Temp. Windchill Dew Point Humidity Pressure Visibility Wind Dir Wind Speed Gust Speed Precip Events Conditions
12:54 AM 34.0 °F 27.2 °F 28.9 °F 82% 29.76 in 10.0 mi WSW 8.1 mph - N/A   Partly Cloudy
1:54 AM 32.0 °F 26.4 °F 28.0 °F 85% 29.75 in 10.0 mi WSW 5.8 mph - N/A   Clear
2:54 AM 30.9 °F 23.5 °F 27.0 °F 85% 29.74 in 10.0 mi WSW 8.1 mph - N/A   Clear
3:54 AM 32.0 °F 25.6 °F 28.0 °F 85% 29.73 in 10.0 mi WSW 6.9 mph - N/A   Scattered Clouds
4:54 AM 33.1 °F 24.9 °F 28.9 °F 85% 29.73 in 10.0 mi West 10.4 mph - N/A   Partly Cloudy
5:54 AM 33.1 °F 24.9 °F 28.9 °F 85% 29.73 in 10.0 mi West 10.4 mph - N/A   Scattered Clouds
6:54 AM 32.0 °F 24.8 °F 28.9 °F 88% 29.73 in 9.0 mi West 8.1 mph - N/A   Scattered Clouds
7:54 AM 34.0 °F 25.5 °F 30.0 °F 85% 29.75 in 9.0 mi West 11.5 mph - N/A   Mostly Cloudy
8:54 AM 36.0 °F 26.0 °F 30.9 °F 82% 29.75 in 10.0 mi West 17.3 mph 20.7 mph N/A   Mostly Cloudy
9:54 AM 39.9 °F 31.4 °F 30.9 °F 70% 29.75 in 10.0 mi WNW 16.1 mph - N/A   Scattered Clouds
10:54 AM 39.9 °F 31.1 °F 30.9 °F 70% 29.76 in 10.0 mi West 17.3 mph 24.2 mph N/A   Overcast
11:42 AM 42.8 °F 35.4 °F 30.2 °F 61% 29.74 in 10.0 mi West 15.0 mph 23.0 mph N/A   Overcast
11:54 AM 41.0 °F 32.5 °F 30.0 °F 65% 29.75 in 10.0 mi West 17.3 mph 25.3 mph N/A   Overcast
12:07 PM 37.4 °F 28.9 °F 30.2 °F 75% 29.74 in 4.0 mi NW 13.8 mph 25.3 mph 0.03 in Snow Light Snow
12:20 PM 39.2 °F 29.3 °F 30.2 °F 70% 29.74 in 10.0 mi WNW 20.7 mph 27.6 mph 0.04 in   Overcast
12:54 PM 39.9 °F 31.8 °F 30.9 °F 70% 29.76 in 10.0 mi WNW 15.0 mph 31.1 mph 0.04 in Rain Light Rain
1:54 PM 43.0 °F 35.4 °F 30.0 °F 60% 29.77 in 10.0 mi West 16.1 mph 26.5 mph 0.00 in   Mostly Cloudy
2:54 PM 42.1 °F 33.6 °F 26.1 °F 53% 29.80 in 10.0 mi WNW 18.4 mph 24.2 mph N/A   Overcast
3:54 PM 39.9 °F 31.8 °F 27.0 °F 60% 29.83 in 10.0 mi WNW 15.0 mph 25.3 mph 0.00 in   Overcast
4:54 PM 39.9 °F 31.4 °F 28.0 °F 63% 29.86 in 10.0 mi NW 16.1 mph 20.7 mph N/A   Overcast
5:54 PM 39.0 °F 29.9 °F 30.0 °F 70% 29.88 in 10.0 mi West 17.3 mph 25.3 mph N/A   Overcast
6:54 PM 37.0 °F 30.4 °F 32.0 °F 82% 29.90 in 10.0 mi West 9.2 mph - 0.00 in   Overcast
7:54 PM 37.0 °F 31.0 °F 30.0 °F 76% 29.91 in 10.0 mi West 8.1 mph - N/A   Mostly Cloudy
8:54 PM 36.0 °F 29.6 °F 28.0 °F 73% 29.92 in 10.0 mi West 8.1 mph - N/A   Mostly Cloudy
9:54 PM 36.0 °F 29.6 °F 28.0 °F 73% 29.92 in 10.0 mi WSW 8.1 mph - N/A   Overcast
10:54 PM 35.1 °F 29.3 °F 26.1 °F 70% 29.93 in 10.0 mi SW 6.9 mph - N/A   Mostly Cloudy
11:54 PM 37.0 °F 31.0 °F 27.0 °F 67% 29.94 in 10.0 mi WSW 8.1 mph - N/A   Overcast